Location: Newark
(25.6108°S, 54.5803°W)
Time: 15:52:14
(UTC+00:00)

Courier 1B Rocket - Pass Details

Date: 28 October 2020
Orbit: 920 x 1202 km, 28.2° (Epoch: 22 November)

Event Time Altitude Azimuth Distance (km) Brightness Sun altitude
Rises 09:30:53 0° 292° (WNW) 3,957 7.5 7.7°
Reaches altitude 10° 09:33:45 10° 294° (WNW) 2,960 6.9 8.3°
Maximum altitude 09:40:58 74° 17° (NNE) 1,086 5.5 9.9°
Drops below altitude 10° 09:47:42 10° 101° (ESE) 2,759 11.4 11.4°
Sets 09:50:17 0° 103° (ESE) 3,673 10.2 12.0°
